| time (UTC) | temp C | wind direction | speed KPH | gust KPH | rain 1hr cm | rain 24hr cm | rain mn cm | humidity % | barometer mb |
| 20260508044002 | 3 | 315 | 3.2 | 6.4 | 0.00 | 0.08 | 0.00 | 86 | 1015.3 |
| 20260508043502 | 3 | 272 | 3.2 | 8.0 | 0.00 | 0.08 | 0.00 | 86 | 1015.3 |
| 20260508043010 | 3 | 352 | 1.6 | 8.0 | 0.00 | 0.08 | 0.00 | 86 | 1015.2 |
| 20260508042506 | 3 | 277 | 4.8 | 9.7 | 0.00 | 0.08 | 0.00 | 85 | 1015.2 |
| 20260508042007 | 3 | 324 | 4.8 | 11.3 | 0.00 | 0.08 | 0.00 | 85 | 1015.2 |
| 20260508041517 | 3 | 317 | 3.2 | 11.3 | 0.00 | 0.08 | 0.00 | 84 | 1015.1 |
| 20260508041008 | 3 | 304 | 4.8 | 8.0 | 0.00 | 0.08 | 0.00 | 84 | 1015.1 |
| 20260508040505 | 3 | 277 | 4.8 | 9.7 | 0.00 | 0.08 | 0.00 | 85 | 1015.1 |
| 20260508040021 | 3 | 281 | 3.2 | 9.7 | 0.00 | 0.08 | 0.00 | 84 | 1015.0 |
| 20260508035507 | 4 | 296 | 4.8 | 11.3 | 0.00 | 0.08 | 0.08 | 84 | 1015.0 |
| 20260508035007 | 4 | 283 | 3.2 | 11.3 | 0.00 | 0.08 | 0.08 | 83 | 1015.0 |
| 20260508034526 | 4 | 283 | 1.6 | 11.3 | 0.00 | 0.08 | 0.08 | 83 | 1014.9 |
| 20260508034007 | 4 | 277 | 6.4 | 11.3 | 0.00 | 0.08 | 0.08 | 84 | 1014.8 |
| 20260508033510 | 4 | 319 | 1.6 | 9.7 | 0.00 | 0.08 | 0.08 | 84 | 1014.7 |
| 20260508033026 | 5 | 304 | 3.2 | 9.7 | 0.00 | 0.08 | 0.08 | 83 | 1014.7 |
| 20260508032508 | 5 | 284 | 4.8 | 9.7 | 0.00 | 0.08 | 0.08 | 82 | 1014.6 |
| 20260508032006 | 5 | 269 | 4.8 | 9.7 | 0.00 | 0.08 | 0.08 | 82 | 1014.6 |
| 20260508031514 | 5 | 319 | 3.2 | 11.3 | 0.00 | 0.08 | 0.08 | 82 | 1014.5 |
| 20260508031007 | 5 | 238 | 4.8 | 11.3 | 0.00 | 0.08 | 0.08 | 82 | 1014.4 |
| 20260508030506 | 5 | 300 | 4.8 | 9.7 | 0.00 | 0.08 | 0.08 | 82 | 1014.4 |
| 20260508030017 | 5 | 264 | 3.2 | 9.7 | 0.00 | 0.08 | 0.08 | 82 | 1014.4 |
| 20260508025506 | 5 | 315 | 4.8 | 8.0 | 0.00 | 0.08 | 0.08 | 82 | 1014.5 |
| 20260508025006 | 5 | 248 | 3.2 | 8.0 | 0.00 | 0.08 | 0.08 | 82 | 1014.3 |
| 20260508024527 | 5 | 332 | 1.6 | 8.0 | 0.00 | 0.08 | 0.08 | 82 | 1014.3 |
| 20260508024008 | 5 | 323 | 3.2 | 8.0 | 0.00 | 0.08 | 0.08 | 82 | 1014.2 |
| 20260508023506 | 5 | 308 | 4.8 | 8.0 | 0.00 | 0.08 | 0.08 | 83 | 1014.1 |
| 20260508023034 | 5 | 298 | 3.2 | 8.0 | 0.00 | 0.08 | 0.08 | 82 | 1014.1 |
| 20260508022510 | 5 | 320 | 3.2 | 8.0 | 0.00 | 0.08 | 0.08 | 83 | 1014.0 |
| 20260508022013 | 5 | 273 | 1.6 | 6.4 | 0.00 | 0.08 | 0.08 | 83 | 1013.9 |
| 20260508021527 | 6 | 299 | 1.6 | 4.8 | 0.00 | 0.08 | 0.08 | 82 | 1013.9 |
| 20260508021009 | 6 | 298 | 1.6 | 6.4 | 0.00 | 0.08 | 0.08 | 81 | 1013.9 |
| 20260508020505 | 6 | 298 | 1.6 | 6.4 | 0.00 | 0.08 | 0.08 | 81 | 1013.8 |
| 20260508020013 | 6 | 303 | 3.2 | 6.4 | 0.00 | 0.08 | 0.08 | 80 | 1013.8 |
| 20260508015502 | 6 | 277 | 1.6 | 4.8 | 0.00 | 0.08 | 0.08 | 79 | 1013.7 |
| 20260508015005 | 6 | 316 | 1.6 | 6.4 | 0.00 | 0.08 | 0.08 | 78 | 1013.7 |
| 20260508014503 | 6 | 316 | 3.2 | 6.4 | 0.00 | 0.08 | 0.08 | 77 | 1013.7 |
| 20260508014004 | 7 | 324 | 1.6 | 6.4 | 0.00 | 0.08 | 0.08 | 77 | 1013.6 |
| 20260508013504 | 7 | 316 | 3.2 | 6.4 | 0.00 | 0.08 | 0.08 | 75 | 1013.5 |
| 20260508013004 | 7 | 319 | 1.6 | 6.4 | 0.00 | 0.08 | 0.08 | 73 | 1013.4 |
| 20260508012505 | 7 | 302 | 1.6 | 6.4 | 0.00 | 0.08 | 0.08 | 73 | 1013.3 |
| 20260508012004 | 8 | 297 | 0.0 | 6.4 | 0.00 | 0.08 | 0.08 | 71 | 1013.2 |
| 20260508011505 | 8 | 321 | 3.2 | 6.4 | 0.00 | 0.08 | 0.08 | 70 | 1013.2 |
| 20260508011006 | 8 | 314 | 1.6 | 4.8 | 0.00 | 0.08 | 0.08 | 69 | 1013.1 |
| 20260508010503 | 8 | 284 | 0.0 | 4.8 | 0.00 | 0.08 | 0.08 | 68 | 1013.0 |
| 20260508010011 | 8 | 313 | 3.2 | 6.4 | 0.00 | 0.08 | 0.08 | 65 | 1012.9 |
| 20260508005502 | 9 | 313 | 3.2 | 6.4 | 0.00 | 0.08 | 0.08 | 64 | 1012.9 |
| 20260508005005 | 9 | 313 | 1.6 | 6.4 | 0.00 | 0.08 | 0.08 | 63 | 1012.8 |
| 20260508004509 | 10 | 322 | 0.0 | 6.4 | 0.00 | 0.08 | 0.08 | 62 | 1012.8 |
| 20260508004008 | 10 | 322 | 1.6 | 6.4 | 0.00 | 0.08 | 0.08 | 61 | 1012.8 |
| 20260508003505 | 10 | 294 | 0.0 | 4.8 | 0.00 | 0.08 | 0.08 | 59 | 1012.7 |
| 20260508003011 | 10 | 294 | 1.6 | 4.8 | 0.00 | 0.08 | 0.08 | 56 | 1012.6 |
| 20260508002502 | 11 | 323 | 1.6 | 11.3 | 0.00 | 0.10 | 0.08 | 56 | 1012.5 |
| 20260508002005 | 11 | 323 | 1.6 | 11.3 | 0.00 | 0.10 | 0.08 | 52 | 1012.4 |
| 20260508001504 | 11 | 305 | 0.0 | 14.5 | 0.00 | 0.10 | 0.08 | 51 | 1012.4 |
| 20260508001021 | 11 | 225 | 4.8 | 14.5 | 0.00 | 0.10 | 0.08 | 50 | 1012.3 |
| 20260508000502 | 11 | 311 | 3.2 | 19.3 | 0.00 | 0.10 | 0.08 | 51 | 1012.4 |
| 20260508000009 | 11 | 298 | 11.3 | 19.3 | 0.00 | 0.10 | 0.08 | 48 | 1012.2 |
| 20260507235503 | 11 | 296 | 9.7 | 19.3 | 0.00 | 0.10 | 0.08 | 48 | 1012.2 |
| 20260507235003 | 11 | 306 | 9.7 | 20.9 | 0.00 | 0.10 | 0.08 | 48 | 1012.2 |
| 20260507234517 | 12 | 300 | 8.0 | 22.5 | 0.00 | 0.10 | 0.08 | 48 | 1012.1 |
| 20260507234003 | 12 | 322 | 11.3 | 22.5 | 0.00 | 0.13 | 0.08 | 47 | 1012.0 |
| 20260507233503 | 12 | 307 | 14.5 | 22.5 | 0.00 | 0.13 | 0.08 | 47 | 1011.9 |
| 20260507233012 | 12 | 304 | 12.9 | 22.5 | 0.00 | 0.13 | 0.08 | 48 | 1011.9 |
| 20260507232510 | 12 | 352 | 11.3 | 22.5 | 0.00 | 0.13 | 0.08 | 47 | 1011.8 |
| 20260507232005 | 12 | 296 | 11.3 | 17.7 | 0.00 | 0.13 | 0.08 | 47 | 1011.8 |
| 20260507231513 | 13 | 301 | 6.4 | 19.3 | 0.00 | 0.13 | 0.08 | 47 | 1011.7 |
| 20260507231002 | 12 | 308 | 8.0 | 20.9 | 0.00 | 0.13 | 0.08 | 47 | 1011.7 |
| 20260507230502 | 12 | 309 | 9.7 | 22.5 | 0.00 | 0.13 | 0.08 | 48 | 1011.7 |
| 20260507230005 | 12 | 310 | 11.3 | 24.1 | 0.00 | 0.13 | 0.08 | 49 | 1011.6 |
| 20260507225504 | 12 | 311 | 11.3 | 25.7 | 0.00 | 0.13 | 0.08 | 47 | 1011.7 |
| 20260507225008 | 13 | 306 | 16.1 | 25.7 | 0.00 | 0.13 | 0.08 | 47 | 1011.6 |
| 20260507224514 | 13 | 340 | 9.7 | 25.7 | 0.00 | 0.13 | 0.08 | 47 | 1011.6 |
| 20260507224004 | 13 | 286 | 16.1 | 25.7 | 0.00 | 0.13 | 0.08 | 46 | 1011.6 |
| 20260507223504 | 13 | 287 | 11.3 | 33.8 | 0.00 | 0.13 | 0.08 | 46 | 1011.4 |
| 20260507223014 | 13 | 336 | 14.5 | 33.8 | 0.00 | 0.13 | 0.08 | 47 | 1011.4 |
| 20260507222507 | 13 | 317 | 17.7 | 29.0 | 0.00 | 0.13 | 0.08 | 45 | 1011.5 |
| 20260507222006 | 13 | 250 | 19.3 | 29.0 | 0.00 | 0.13 | 0.08 | 45 | 1011.4 |
| 20260507221516 | 13 | 309 | 12.9 | 32.2 | 0.00 | 0.13 | 0.08 | 46 | 1011.2 |
| 20260507221006 | 13 | 309 | 19.3 | 32.2 | 0.00 | 0.13 | 0.08 | 46 | 1011.2 |
| 20260507220506 | 13 | 312 | 16.1 | 32.2 | 0.00 | 0.13 | 0.08 | 47 | 1011.2 |
| 20260507220016 | 13 | 325 | 4.8 | 25.7 | 0.00 | 0.13 | 0.08 | 50 | 1011.2 |
| 20260507215509 | 13 | 339 | 14.5 | 25.7 | 0.00 | 0.13 | 0.08 | 47 | 1011.1 |
| 20260507215006 | 13 | 301 | 11.3 | 24.1 | 0.00 | 0.13 | 0.08 | 47 | 1011.0 |
| 20260507214506 | 13 | 302 | 11.3 | 22.5 | 0.00 | 0.13 | 0.08 | 47 | 1010.9 |
| 20260507214004 | 13 | 336 | 9.7 | 20.9 | 0.00 | 0.13 | 0.08 | 48 | 1010.9 |
| 20260507213505 | 13 | 319 | 4.8 | 24.1 | 0.00 | 0.13 | 0.08 | 52 | 1011.0 |
| 20260507213009 | 13 | 325 | 11.3 | 25.7 | 0.00 | 0.13 | 0.08 | 49 | 1010.9 |
| 20260507212506 | 13 | 325 | 16.1 | 27.4 | 0.00 | 0.13 | 0.08 | 48 | 1010.9 |
| 20260507212006 | 13 | 338 | 16.1 | 27.4 | 0.00 | 0.13 | 0.08 | 47 | 1010.8 |
| 20260507211514 | 13 | 276 | 6.4 | 20.9 | 0.00 | 0.13 | 0.08 | 51 | 1010.7 |
| 20260507211006 | 13 | 332 | 9.7 | 20.9 | 0.00 | 0.13 | 0.08 | 49 | 1010.6 |
| 20260507210505 | 13 | 325 | 8.0 | 27.4 | 0.00 | 0.13 | 0.08 | 49 | 1010.6 |
| 20260507210018 | 12 | 297 | 14.5 | 27.4 | 0.00 | 0.13 | 0.08 | 49 | 1010.7 |
| 20260507205509 | 13 | 360 | 12.9 | 22.5 | 0.00 | 0.13 | 0.08 | 50 | 1010.6 |
| 20260507205008 | 13 | 334 | 9.7 | 32.2 | 0.00 | 0.13 | 0.08 | 50 | 1010.6 |
| 20260507204518 | 13 | 335 | 17.7 | 32.2 | 0.00 | 0.13 | 0.08 | 50 | 1010.6 |
| 20260507204006 | 13 | 130 | 3.2 | 16.1 | 0.00 | 0.13 | 0.08 | 52 | 1010.6 |
| 20260507203508 | 13 | 324 | 4.8 | 16.1 | 0.00 | 0.13 | 0.08 | 51 | 1010.6 |
| 20260507203010 | 13 | 32 | 6.4 | 14.5 | 0.00 | 0.13 | 0.08 | 54 | 1010.7 |
| 20260507202502 | 13 | 23 | 4.8 | 25.7 | 0.00 | 0.13 | 0.08 | 53 | 1010.7 |
| 20260507202007 | 13 | 360 | 4.8 | 25.7 | 0.00 | 0.13 | 0.08 | 53 | 1010.8 |
| 20260507201521 | 13 | 326 | 9.7 | 24.1 | 0.00 | 0.15 | 0.08 | 52 | 1010.8 |
| 20260507201009 | 13 | 329 | 6.4 | 32.2 | 0.00 | 0.15 | 0.08 | 53 | 1010.7 |
| 20260507200506 | 13 | 5 | 12.9 | 32.2 | 0.00 | 0.15 | 0.08 | 50 | 1010.7 |
| 20260507200030 | 13 | 322 | 14.5 | 20.9 | 0.00 | 0.15 | 0.08 | 53 | 1010.8 |
| 20260507195505 | 13 | 340 | 8.0 | 17.7 | 0.00 | 0.15 | 0.08 | 52 | 1011.0 |
| 20260507195008 | 13 | 352 | 6.4 | 24.1 | 0.00 | 0.15 | 0.08 | 53 | 1011.0 |
| 20260507194524 | 14 | 298 | 11.3 | 29.0 | 0.00 | 0.15 | 0.08 | 54 | 1011.0 |
| 20260507194009 | 14 | 153 | 6.4 | 29.0 | 0.00 | 0.15 | 0.08 | 49 | 1010.9 |
| 20260507193509 | 14 | 296 | 16.1 | 22.5 | 0.00 | 0.15 | 0.08 | 53 | 1011.0 |
| 20260507193027 | 14 | 300 | 12.9 | 25.7 | 0.00 | 0.15 | 0.08 | 50 | 1010.9 |
| 20260507192508 | 13 | 242 | 12.9 | 25.7 | 0.00 | 0.15 | 0.08 | 50 | 1010.9 |
| 20260507192008 | 13 | 340 | 12.9 | 29.0 | 0.00 | 0.15 | 0.08 | 51 | 1011.0 |
| 20260507191510 | 13 | 299 | 14.5 | 29.0 | 0.00 | 0.15 | 0.08 | 51 | 1011.1 |
| 20260507191006 | 13 | 288 | 16.1 | 29.0 | 0.00 | 0.15 | 0.08 | 53 | 1011.1 |
| 20260507190506 | 13 | 304 | 17.7 | 27.4 | 0.00 | 0.15 | 0.08 | 55 | 1011.1 |
| 20260507190031 | 13 | 317 | 8.0 | 24.1 | 0.00 | 0.15 | 0.08 | 52 | 1011.0 |
| 20260507185506 | 13 | 247 | 11.3 | 25.7 | 0.00 | 0.15 | 0.08 | 54 | 1011.0 |
| 20260507185010 | 13 | 264 | 14.5 | 25.7 | 0.00 | 0.15 | 0.08 | 55 | 1011.2 |
| 20260507184533 | 13 | 311 | 11.3 | 24.1 | 0.00 | 0.15 | 0.08 | 56 | 1011.4 |
| 20260507184006 | 13 | 344 | 16.1 | 24.1 | 0.00 | 0.15 | 0.08 | 55 | 1011.5 |
| 20260507183509 | 13 | 338 | 9.7 | 25.7 | 0.00 | 0.15 | 0.08 | 59 | 1011.5 |
| 20260507183026 | 12 | 317 | 6.4 | 29.0 | 0.00 | 0.15 | 0.08 | 56 | 1011.3 |
| 20260507182510 | 13 | 317 | 16.1 | 29.0 | 0.00 | 0.15 | 0.08 | 59 | 1011.5 |
| 20260507182011 | 12 | 296 | 11.3 | 25.7 | 0.00 | 0.15 | 0.08 | 58 | 1011.4 |
| 20260507181524 | 13 | 314 | 16.1 | 25.7 | 0.00 | 0.15 | 0.08 | 56 | 1011.4 |
| 20260507181006 | 13 | 336 | 16.1 | 25.7 | 0.00 | 0.15 | 0.08 | 57 | 1011.2 |
| 20260507180506 | 13 | 9 | 11.3 | 22.5 | 0.00 | 0.15 | 0.08 | 58 | 1011.2 |
| 20260507180014 | 12 | 305 | 9.7 | 30.6 | 0.00 | 0.15 | 0.08 | 57 | 1011.3 |
| 20260507175504 | 12 | 327 | 14.5 | 30.6 | 0.00 | 0.15 | 0.08 | 61 | 1011.3 |
| 20260507175003 | 12 | 327 | 9.7 | 22.5 | 0.00 | 0.15 | 0.08 | 59 | 1011.3 |
| 20260507174503 | 12 | 346 | 11.3 | 19.3 | 0.00 | 0.15 | 0.08 | 60 | 1011.4 |
| 20260507174003 | 12 | 352 | 8.0 | 16.1 | 0.00 | 0.15 | 0.08 | 59 | 1011.4 |
| 20260507173505 | 12 | 314 | 6.4 | 24.1 | 0.00 | 0.15 | 0.08 | 60 | 1011.4 |
| 20260507173004 | 12 | 346 | 8.0 | 25.7 | 0.00 | 0.15 | 0.08 | 58 | 1011.6 |
| 20260507172503 | 12 | 325 | 12.9 | 25.7 | 0.00 | 0.15 | 0.08 | 58 | 1011.7 |
| 20260507172002 | 12 | 326 | 3.2 | 19.3 | 0.00 | 0.15 | 0.08 | 62 | 1011.7 |
| 20260507171507 | 12 | 311 | 8.0 | 20.9 | 0.00 | 0.15 | 0.08 | 60 | 1011.9 |
| 20260507171003 | 12 | 325 | 12.9 | 20.9 | 0.00 | 0.15 | 0.08 | 61 | 1012.0 |
| 20260507170503 | 11 | 360 | 3.2 | 17.7 | 0.00 | 0.15 | 0.08 | 63 | 1012.0 |
| 20260507170015 | 11 | 28 | 8.0 | 24.1 | 0.00 | 0.15 | 0.08 | 61 | 1012.2 |
| 20260507165504 | 11 | 5 | 6.4 | 24.1 | 0.00 | 0.15 | 0.08 | 63 | 1012.3 |
| 20260507165002 | 11 | 331 | 12.9 | 20.9 | 0.00 | 0.15 | 0.08 | 64 | 1012.3 |
| 20260507164503 | 11 | 335 | 14.5 | 20.9 | 0.00 | 0.15 | 0.08 | 61 | 1012.3 |
| 20260507164004 | 11 | 346 | 8.0 | 14.5 | 0.00 | 0.15 | 0.08 | 63 | 1012.4 |
| 20260507163503 | 11 | 278 | 6.4 | 14.5 | 0.00 | 0.15 | 0.08 | 64 | 1012.4 |
| 20260507163003 | 11 | 319 | 3.2 | 17.7 | 0.00 | 0.15 | 0.08 | 64 | 1012.5 |
| 20260507162503 | 11 | 360 | 9.7 | 17.7 | 0.00 | 0.15 | 0.08 | 64 | 1012.7 |
| 20260507162003 | 11 | 283 | 4.8 | 17.7 | 0.00 | 0.15 | 0.08 | 64 | 1012.7 |
| 20260507161504 | 11 | 305 | 9.7 | 19.3 | 0.00 | 0.15 | 0.08 | 66 | 1012.8 |
| 20260507161003 | 11 | 352 | 8.0 | 19.3 | 0.00 | 0.15 | 0.08 | 62 | 1012.8 |
| 20260507160504 | 11 | 321 | 4.8 | 17.7 | 0.00 | 0.15 | 0.08 | 64 | 1012.8 |
| 20260507160009 | 11 | 309 | 8.0 | 19.3 | 0.00 | 0.15 | 0.08 | 63 | 1012.8 |
| 20260507155505 | 11 | 317 | 3.2 | 19.3 | 0.00 | 0.15 | 0.08 | 64 | 1012.8 |
| 20260507155007 | 11 | 306 | 12.9 | 17.7 | 0.00 | 0.15 | 0.08 | 63 | 1012.8 |
| 20260507154515 | 11 | 254 | 1.6 | 9.7 | 0.00 | 0.15 | 0.08 | 62 | 1012.8 |
| 20260507154003 | 11 | 252 | 3.2 | 16.1 | 0.00 | 0.15 | 0.08 | 62 | 1012.8 |
| 20260507153504 | 11 | 261 | 3.2 | 16.1 | 0.00 | 0.15 | 0.08 | 65 | 1012.9 |
| 20260507153005 | 11 | 18 | 1.6 | 16.1 | 0.00 | 0.15 | 0.08 | 62 | 1012.8 |
| 20260507152503 | 11 | 329 | 4.8 | 14.5 | 0.00 | 0.15 | 0.08 | 64 | 1012.8 |
| 20260507152003 | 10 | 5 | 3.2 | 14.5 | 0.00 | 0.15 | 0.08 | 65 | 1012.9 |
| 20260507151503 | 10 | 158 | 4.8 | 14.5 | 0.00 | 0.15 | 0.08 | 65 | 1013.0 |
| 20260507151003 | 10 | 247 | 1.6 | 14.5 | 0.00 | 0.15 | 0.08 | 66 | 1013.0 |
| 20260507150503 | 10 | 346 | 6.4 | 14.5 | 0.00 | 0.15 | 0.08 | 67 | 1013.0 |
| 20260507150011 | 10 | 333 | 3.2 | 9.7 | 0.00 | 0.15 | 0.08 | 65 | 1013.0 |
| 20260507145510 | 10 | 316 | 0.0 | 16.1 | 0.00 | 0.15 | 0.08 | 66 | 1013.2 |
| 20260507145003 | 10 | 5 | 3.2 | 16.1 | 0.00 | 0.15 | 0.08 | 66 | 1013.3 |
| 20260507144511 | 10 | 316 | 9.7 | 17.7 | 0.00 | 0.15 | 0.08 | 63 | 1013.3 |
| 20260507144005 | 10 | 300 | 8.0 | 17.7 | 0.00 | 0.15 | 0.08 | 62 | 1013.3 |
| 20260507143511 | 10 | 341 | 3.2 | 12.9 | 0.00 | 0.15 | 0.08 | 68 | 1013.2 |
| 20260507143015 | 10 | 39 | 6.4 | 12.9 | 0.00 | 0.15 | 0.08 | 71 | 1013.4 |
| 20260507142505 | 10 | 335 | 4.8 | 14.5 | 0.00 | 0.15 | 0.08 | 70 | 1013.5 |
| 20260507142006 | 10 | 335 | 8.0 | 17.7 | 0.00 | 0.15 | 0.08 | 69 | 1013.6 |
| 20260507141503 | 10 | 315 | 11.3 | 17.7 | 0.00 | 0.15 | 0.08 | 71 | 1013.5 |
| 20260507141007 | 10 | 311 | 1.6 | 6.4 | 0.00 | 0.15 | 0.08 | 75 | 1013.5 |
| 20260507140503 | 10 | 323 | 1.6 | 8.0 | 0.00 | 0.15 | 0.08 | 77 | 1013.6 |
| 20260507140005 | 9 | 211 | 4.8 | 8.0 | 0.00 | 0.15 | 0.08 | 80 | 1013.6 |
| 20260507135503 | 9 | 26 | 3.2 | 6.4 | 0.00 | 0.15 | 0.08 | 79 | 1013.6 |
| 20260507135003 | 9 | 205 | 0.0 | 6.4 | 0.00 | 0.15 | 0.08 | 80 | 1013.5 |
| 20260507134512 | 9 | 319 | 3.2 | 6.4 | 0.00 | 0.15 | 0.08 | 80 | 1013.7 |
| 20260507134002 | 9 | 318 | 3.2 | 6.4 | 0.00 | 0.15 | 0.08 | 83 | 1013.7 |
| 20260507133503 | 8 | 124 | 1.6 | 6.4 | 0.00 | 0.15 | 0.08 | 84 | 1013.7 |
| 20260507133014 | 8 | 69 | 0.0 | 4.8 | 0.00 | 0.15 | 0.08 | 86 | 1013.9 |
| 20260507132506 | 8 | 139 | 0.0 | 4.8 | 0.00 | 0.15 | 0.08 | 86 | 1013.9 |
| 20260507132010 | 8 | 126 | 1.6 | 4.8 | 0.00 | 0.15 | 0.08 | 86 | 1014.0 |
| 20260507131521 | 8 | 302 | 0.0 | 4.8 | 0.00 | 0.15 | 0.08 | 86 | 1014.1 |
| 20260507131006 | 8 | 125 | 0.0 | 3.2 | 0.00 | 0.15 | 0.08 | 88 | 1014.1 |
| 20260507130507 | 7 | 125 | 0.0 | 3.2 | 0.00 | 0.18 | 0.08 | 89 | 1014.2 |
| 20260507130008 | 7 | 186 | 0.0 | 3.2 | 0.00 | 0.18 | 0.08 | 87 | 1014.2 |
| 20260507125502 | 7 | 186 | 0.0 | 4.8 | 0.00 | 0.18 | 0.08 | 90 | 1014.3 |
| 20260507125003 | 7 | 198 | 1.6 | 4.8 | 0.00 | 0.20 | 0.08 | 91 | 1014.3 |
| 20260507124507 | 7 | 324 | 0.0 | 1.6 | 0.00 | 0.20 | 0.08 | 93 | 1014.3 |
| 20260507124011 | 7 | 324 | 0.0 | 1.6 | 0.00 | 0.23 | 0.08 | 93 | 1014.4 |
| 20260507123510 | 7 | 324 | 0.0 | 4.8 | 0.00 | 0.23 | 0.08 | 93 | 1014.4 |
| 20260507123010 | 7 | 324 | 0.0 | 4.8 | 0.00 | 0.23 | 0.08 | 94 | 1014.5 |
| 20260507122503 | 7 | 324 | 0.0 | 4.8 | 0.00 | 0.23 | 0.08 | 94 | 1014.5 |
| 20260507122009 | 7 | 319 | 0.0 | 0.0 | 0.00 | 0.25 | 0.08 | 94 | 1014.6 |
| 20260507121537 | 7 | 319 | 0.0 | 3.2 | 0.00 | 0.25 | 0.08 | 94 | 1014.5 |
| 20260507121007 | 7 | 319 | 0.0 | 4.8 | 0.00 | 0.30 | 0.08 | 95 | 1014.5 |
| 20260507120507 | 7 | 319 | 1.6 | 4.8 | 0.00 | 0.30 | 0.08 | 94 | 1014.5 |
| 20260507120021 | 7 | 262 | 0.0 | 0.0 | 0.00 | 0.36 | 0.08 | 94 | 1014.4 |
| 20260507115506 | 7 | 186 | 0.0 | 0.0 | 0.00 | 0.38 | 0.08 | 94 | 1014.4 |
| 20260507115010 | 7 | 159 | 0.0 | 0.0 | 0.00 | 0.41 | 0.08 | 94 | 1014.4 |
| 20260507114504 | 7 | 48 | 0.0 | 0.0 | 0.00 | 0.43 | 0.08 | 94 | 1014.2 |
| 20260507114003 | 7 | 48 | 0.0 | 0.0 | 0.00 | 0.51 | 0.08 | 94 | 1014.1 |
| 20260507113502 | 7 | 48 | 0.0 | 0.0 | 0.00 | 0.53 | 0.08 | 94 | 1014.0 |
| 20260507113008 | 7 | 156 | 0.0 | 0.0 | 0.00 | 0.58 | 0.08 | 94 | 1013.9 |
| 20260507112503 | 7 | 156 | 0.0 | 0.0 | 0.00 | 0.61 | 0.08 | 94 | 1013.8 |
| 20260507112004 | 7 | 156 | 0.0 | 0.0 | 0.00 | 0.61 | 0.08 | 94 | 1013.8 |
| 20260507111522 | 7 | 156 | 0.0 | 3.2 | 0.00 | 0.64 | 0.08 | 94 | 1013.8 |
| 20260507111008 | 7 | 156 | 0.0 | 4.8 | 0.00 | 0.64 | 0.08 | 94 | 1013.8 |
| 20260507110509 | 7 | 156 | 1.6 | 4.8 | 0.00 | 0.66 | 0.08 | 93 | 1013.8 |
| 20260507110027 | 7 | 175 | 1.6 | 4.8 | 0.00 | 0.66 | 0.08 | 94 | 1013.6 |
| 20260507105508 | 7 | 185 | 1.6 | 3.2 | 0.00 | 0.66 | 0.08 | 94 | 1013.6 |
| 20260507105007 | 7 | 184 | 0.0 | 3.2 | 0.00 | 0.69 | 0.08 | 94 | 1013.5 |
| 20260507104520 | 7 | 184 | 0.0 | 3.2 | 0.00 | 0.69 | 0.08 | 93 | 1013.5 |
| 20260507104008 | 7 | 184 | 1.6 | 4.8 | 0.00 | 0.71 | 0.08 | 93 | 1013.4 |
| 20260507103508 | 7 | 183 | 1.6 | 9.7 | 0.00 | 0.74 | 0.08 | 94 | 1013.5 |
| 20260507103027 | 7 | 210 | 3.2 | 9.7 | 0.00 | 0.76 | 0.08 | 93 | 1013.4 |
| 20260507102512 | 7 | 148 | 3.2 | 8.0 | 0.00 | 0.79 | 0.08 | 93 | 1013.4 |
| 20260507102007 | 7 | 209 | 0.0 | 4.8 | 0.00 | 0.81 | 0.08 | 93 | 1013.4 |
| 20260507101508 | 7 | 213 | 1.6 | 6.4 | 0.03 | 0.86 | 0.08 | 92 | 1013.4 |
| 20260507101004 | 7 | 266 | 1.6 | 9.7 | 0.03 | 0.86 | 0.08 | 92 | 1013.3 |
| 20260507100503 | 7 | 287 | 3.2 | 16.1 | 0.03 | 0.91 | 0.08 | 92 | 1013.3 |
| 20260507100032 | 7 | 325 | 3.2 | 16.1 | 0.03 | 0.94 | 0.08 | 92 | 1013.3 |
| 20260507095008 | 7 | 323 | 4.8 | 17.7 | 0.03 | 1.04 | 0.08 | 93 | 1013.3 |
| 20260507094522 | 7 | 301 | 9.7 | 20.9 | 0.03 | 1.07 | 0.08 | 93 | 1013.3 |
| 20260507094007 | 7 | 311 | 8.0 | 20.9 | 0.03 | 1.09 | 0.08 | 93 | 1013.1 |
| 20260507093507 | 7 | 296 | 9.7 | 19.3 | 0.03 | 1.12 | 0.08 | 93 | 1013.1 |
| 20260507093035 | 7 | 294 | 12.9 | 19.3 | 0.05 | 1.12 | 0.08 | 94 | 1013.0 |
| 20260507092507 | 7 | 310 | 6.4 | 11.3 | 0.05 | 1.12 | 0.08 | 95 | 1013.0 |
| 20260507092011 | 7 | 9 | 6.4 | 16.1 | 0.05 | 1.12 | 0.08 | 95 | 1012.8 |
| 20260507091528 | 7 | 326 | 6.4 | 16.1 | 0.03 | 1.09 | 0.05 | 96 | 1013.0 |
| 20260507091009 | 7 | 5 | 3.2 | 11.3 | 0.03 | 1.09 | 0.05 | 97 | 1013.0 |
| 20260507090508 | 7 | 159 | 0.0 | 0.0 | 0.03 | 1.09 | 0.05 | 97 | 1012.9 |
| 20260507090030 | 7 | 159 | 0.0 | 0.0 | 0.03 | 1.09 | 0.05 | 97 | 1013.0 |
| 20260507085507 | 7 | 159 | 0.0 | 0.0 | 0.03 | 1.09 | 0.05 | 96 | 1013.2 |
| 20260507085004 | 7 | 159 | 0.0 | 0.0 | 0.03 | 1.09 | 0.05 | 97 | 1013.2 |
| 20260507084504 | 7 | 126 | 0.0 | 0.0 | 0.03 | 1.09 | 0.05 | 97 | 1013.2 |
| 20260507084013 | 7 | 126 | 0.0 | 0.0 | 0.03 | 1.09 | 0.05 | 97 | 1013.0 |
| 20260507083504 | 7 | 126 | 0.0 | 0.0 | 0.03 | 1.09 | 0.05 | 97 | 1013.0 |
| 20260507083048 | 7 | 126 | 0.0 | 0.0 | 0.00 | 1.07 | 0.03 | 96 | 1013.0 |
| 20260507082543 | 7 | 126 | 0.0 | 3.2 | 0.00 | 1.07 | 0.03 | 96 | 1012.9 |
| 20260507082009 | 7 | 126 | 0.0 | 3.2 | 0.00 | 1.07 | 0.03 | 96 | 1012.8 |
| 20260507081515 | 7 | 126 | 1.6 | 3.2 | 0.00 | 1.07 | 0.03 | 96 | 1013.0 |
| 20260507081010 | 7 | 126 | 0.0 | 3.2 | 0.00 | 1.07 | 0.03 | 96 | 1013.0 |
| 20260507080507 | 7 | 124 | 1.6 | 3.2 | 0.00 | 1.07 | 0.03 | 96 | 1013.1 |
| 20260507080033 | 7 | 124 | 0.0 | 3.2 | 0.00 | 1.07 | 0.03 | 96 | 1013.2 |
| 20260507075509 | 7 | 124 | 0.0 | 3.2 | 0.00 | 1.07 | 0.03 | 96 | 1013.3 |
| 20260507075006 | 7 | 122 | 1.6 | 3.2 | 0.00 | 1.07 | 0.03 | 96 | 1013.2 |
| 20260507074529 | 7 | 123 | 0.0 | 4.8 | 0.00 | 1.07 | 0.03 | 96 | 1013.0 |
| 20260507074007 | 7 | 123 | 3.2 | 4.8 | 0.00 | 1.07 | 0.03 | 96 | 1013.0 |
| 20260507073512 | 7 | 116 | 0.0 | 4.8 | 0.00 | 1.07 | 0.03 | 96 | 1013.1 |
| 20260507073005 | 8 | 117 | 1.6 | 4.8 | 0.00 | 1.07 | 0.03 | 96 | 1013.1 |
| 20260507072504 | 8 | 87 | 0.0 | 4.8 | 0.00 | 1.07 | 0.03 | 96 | 1013.2 |
| 20260507072006 | 8 | 115 | 1.6 | 4.8 | 0.00 | 1.07 | 0.03 | 96 | 1013.2 |
| 20260507071512 | 8 | 98 | 0.0 | 3.2 | 0.00 | 1.07 | 0.03 | 96 | 1013.1 |
| 20260507071003 | 8 | 94 | 0.0 | 0.0 | 0.00 | 1.07 | 0.03 | 96 | 1013.2 |
| 20260507070504 | 8 | 94 | 0.0 | 0.0 | 0.00 | 1.07 | 0.03 | 95 | 1013.0 |
| 20260507070013 | 8 | 94 | 0.0 | 0.0 | 0.00 | 1.07 | 0.03 | 95 | 1013.0 |
| 20260507065507 | 8 | 125 | 0.0 | 3.2 | 0.00 | 1.07 | 0.03 | 96 | 1012.9 |
| 20260507065005 | 8 | 133 | 0.0 | 4.8 | 0.00 | 1.07 | 0.03 | 95 | 1013.0 |
| 20260507064516 | 8 | 94 | 1.6 | 4.8 | 0.00 | 1.07 | 0.03 | 94 | 1013.0 |
| 20260507064007 | 8 | 131 | 0.0 | 4.8 | 0.00 | 1.07 | 0.03 | 94 | 1013.1 |
| 20260507063508 | 8 | 125 | 1.6 | 3.2 | 0.00 | 1.07 | 0.03 | 94 | 1013.1 |
| 20260507063020 | 8 | 84 | 0.0 | 3.2 | 0.00 | 1.07 | 0.03 | 94 | 1013.2 |
| 20260507062510 | 8 | 84 | 0.0 | 4.8 | 0.00 | 1.07 | 0.03 | 94 | 1013.0 |
| 20260507061536 | 8 | 53 | 0.0 | 3.2 | 0.00 | 1.07 | 0.03 | 93 | 1013.1 |
| 20260507061006 | 8 | 352 | 0.0 | 0.0 | 0.00 | 1.07 | 0.03 | 93 | 1013.2 |
| 20260507060504 | 8 | 352 | 0.0 | 0.0 | 0.00 | 1.07 | 0.03 | 93 | 1013.3 |
| 20260507060007 | 8 | 30 | 0.0 | 4.8 | 0.00 | 1.07 | 0.03 | 93 | 1013.5 |
| 20260507055503 | 8 | 30 | 0.0 | 6.4 | 0.03 | 1.07 | 0.03 | 92 | 1013.6 |
| 20260507055009 | 8 | 49 | 1.6 | 6.4 | 0.03 | 1.07 | 0.03 | 93 | 1013.6 |
| 20260507054511 | 8 | 45 | 1.6 | 4.8 | 0.03 | 1.07 | 0.03 | 93 | 1013.6 |
| 20260507053507 | 8 | 38 | 0.0 | 12.9 | 0.03 | 1.07 | 0.03 | 93 | 1013.9 |
| 20260507053016 | 8 | 304 | 1.6 | 12.9 | 0.03 | 1.07 | 0.03 | 92 | 1013.8 |
| 20260507052506 | 8 | 298 | 3.2 | 8.0 | 0.03 | 1.07 | 0.03 | 92 | 1013.8 |
| 20260507052006 | 8 | 273 | 3.2 | 11.3 | 0.03 | 1.07 | 0.03 | 93 | 1013.7 |
| 20260507051521 | 8 | 323 | 3.2 | 12.9 | 0.03 | 1.07 | 0.03 | 92 | 1013.8 |
| 20260507051010 | 8 | 265 | 4.8 | 19.3 | 0.03 | 1.07 | 0.03 | 91 | 1013.7 |
| 20260507050507 | 9 | 283 | 1.6 | 19.3 | 0.03 | 1.07 | 0.03 | 92 | 1013.8 |
| 20260507050021 | 9 | 319 | 11.3 | 19.3 | 0.03 | 1.07 | 0.03 | 91 | 1013.6 |
| 20260507045503 | 9 | 328 | 6.4 | 19.3 | 0.00 | 1.04 | 0.00 | 91 | 1013.5 |
| 20260507045004 | 9 | 311 | 8.0 | 19.3 | 0.00 | 1.04 | 0.00 | 91 | 1013.7 |
| 20260507044505 | 10 | 5 | 3.2 | 9.7 | 0.00 | 1.04 | 0.00 | 93 | 1013.4 |